Flag for Germany Weather past 2 weeks in Greifswald, Mecklenburg-Western Pomerania, Germany

Now
35 °F

Clear.


Feels Like: 33 °F
Forecast: 34 / 45 °F
Wind: 3 mph from Southeast

Location: Greifswald

Current Time: Feb 27, 2015 at 2:27:06 AM

Latest Report: Feb 27, 2015 at 2:00 AM


Visibility: 8 mi

Pressure: 29.96 "Hg

Humidity: 77%

Dew point: 29 °F

Location of GreifswaldLocation

Historic Weather in Greifswald — Graph

°F

Greifswald temperature yesterday

Maximum temperature yesterday: 48 °F (at 3:00 PM)
Minimum temperature yesterday: 29 °F (at 3:00 AM)
Average temperature yesterday: 38 °F

Past Weeks' High & Low Weather Summary

 TemperatureHumidityPressure
High48 °F (Feb 26, 3:00 PM)99% (Feb 13, 11:00 PM)30.66 "Hg (Feb 13, 11:00 PM)
Low26 °F (Feb 14, 5:00 AM)43% (Feb 19, 3:00 PM)29.26 "Hg (Feb 21, 3:00 PM)
Average36 °F82%30.02 "Hg
* Reported Feb 12 1:00 AM — Feb 27 1:00 AM, Greifswald, Weather by CustomWeather, © 2015

Note: Actual official high and low records may vary slightly from our data, if they occured in-between our weather recording intervals... More about our weather records

Advertising

Greifswald weather history for previous 24 hours

 ConditionsComfort  
Time TempWeatherWind HumidityBarometerVisibility
1:00 AM
Fri, Feb 27
36 °FClear.5 mph75%29.97 "Hg8 mi
12:00 AM36 °FClear.3 mph74%29.99 "Hg10 mi
11:00 PM
Thu, Feb 26
36 °FClear.3 mph73%30.01 "Hg11 mi
9:00 PM38 °FClear.3 mph68%30.04 "Hg11 mi
8:00 PM40 °FClear.5 mph65%30.05 "Hg11 mi
7:00 PM41 °FClear.5 mph64%30.06 "Hg12 mi
6:00 PM42 °FClear.5 mph63%30.07 "Hg16 mi
5:00 PM46 °FSunny.5 mph60%30.08 "Hg16 mi
3:00 PM48 °FSunny.5 mph50%30.12 "Hg12 mi
2:00 PM48 °FSunny.5 mph46%30.14 "Hg19 mi
1:00 PM47 °FSunny.5 mph57%30.16 "Hg9 mi
12:00 PM45 °FSunny.5 mph60%30.19 "Hg11 mi
11:00 AM44 °FSunny.3 mph60%30.19 "Hg12 mi
10:00 AM41 °FSunny.3 mph66%30.20 "Hg12 mi
9:00 AM38 °FSunny.2 mph74%30.21 "Hg7 mi
8:00 AM33 °FSunny.2 mph89%30.20 "Hg5 mi
7:00 AM31 °FClear.2 mph93%30.19 "Hg5 mi
6:00 AM30 °FFog.3 mph95%30.19 "Hg3 mi
5:00 AM30 °FFog.1 mph98%30.19 "Hg3 mi
3:00 AM29 °FFog.1 mph98%30.19 "Hg2 mi
2:00 AM30 °FFog.1 mph98%30.19 "Hg2 mi
Weather by CustomWeather, © 2015

See weather overviewHow to use our weather pages